Regional Weather Roundup
Issued by NWS

Home | Current Version | Previous Version | Graphics & Text | Print | Product List | Glossary On
Versions: 1 2 3 4 5 6 7 8 9 10 11 12 13 14 15 16 17 18 19 20 21 22 23 24 25 26 27
000
ASUS45 KTFX 281610
RWRMT
MONTANA REGIONAL WEATHER ROUNDUP
NATIONAL WEATHER SERVICE GREAT FALLS MT
1000 AM MDT THU JUL 28 2016

NOTE: "FAIR" INDICATES FEW OR NO CLOUDS BELOW 12000 FEET WITH NO
SIGNIFICANT WEATHER AND/OR OBSTRUCTIONS TO VISIBILITY.

MTZ001>007-043-281700-
WEST OF THE DIVIDE

CITY           SKY/WX    TMP DP  RH WIND       PRES   REMARKS
KALISPELL      SUNNY     71  54  54 NE8G17    30.16S
MISSOULA       SUNNY     72  51  47 S3        30.18S
BUTTE          SUNNY     67  47  48 VRB3      30.27F
MULLAN PASS    SUNNY     66  49  54 CALM      30.30R
EUREKA           N/A     66  55  68 CALM      30.20S
HAMILTON         N/A     72  50  46 CALM      30.19S
LIBBY            N/A     70  54  56 N3        30.17F
PLAINS           N/A     69  55  60 CALM      30.14F
RONAN            N/A     73  55  53 CALM      30.21S
$$

MTZ008-052>055-281700-
SOUTHWEST MONTANA

CITY           SKY/WX    TMP DP  RH WIND       PRES   REMARKS
BOZEMAN        SUNNY     68  55  63 CALM      30.23F
DILLON         SUNNY     66  51  58 NW3       30.25F
W YELLOWSTONE  SUNNY     63  45  51 CALM      30.34S
ENNIS          SUNNY     66  45  45 SW3       30.31S
THREE FORKS      N/A     70  54  56 CALM      30.19S
TWIN BRIDGES     N/A     66  51  58 S3        30.21S
$$

MTZ009-010-012-014-046-048-049-054-281700-
EAST SLOPES AND CENTRAL MONTANA

CITY           SKY/WX    TMP DP  RH WIND       PRES   REMARKS
CUT BANK       SUNNY     67  56  67 VRB3      30.20F
GREAT FALLS    SUNNY     71  51  49 NE6       30.19F
MALMSTROM AFB  SUNNY     69  53  56 NE6       30.20
HELENA         SUNNY     72  50  45 CALM      30.19F
CHOTEAU          N/A     72  50  46 VRB6      30.23S
CONRAD           N/A     68  62  80 S5        30.20S
$$

MTZ011-013-016-021-045-047-050-051-281700-
NORTH CENTRAL MONTANA

CITY           SKY/WX    TMP DP  RH WIND       PRES   REMARKS
HAVRE          SUNNY     70  59  68 VRB5      30.17F
N BAR RANCH    CLOUDY    66  55  68 CALM      30.26S
CHINOOK          N/A     70  63  78 CALM      30.18F
$$

MTZ017>020-022>027-061-062-281700-
NORTHEAST MONTANA

CITY           SKY/WX    TMP DP  RH WIND       PRES   REMARKS
GLASGOW        PTSUNNY   67  59  75 E8        30.17S
JORDAN           N/A     69  60  73 E12       30.17F
SIDNEY         MOSUNNY   72  58  61 NE12      30.16R
WOLF POINT     MOSUNNY   70  61  73 SE9       30.17S
PLENTYWOOD       N/A     70  57  64 E3        30.18S
SCOBEY           N/A     64  52  65 NE2       30.17F
$$

MTZ028>42-056>058-281700-
SOUTHCENTRAL AND SOUTHEAST MONTANA

CITY           SKY/WX    TMP DP  RH WIND       PRES   REMARKS
BAKER          CLOUDY    65  61  87 CALM      30.17R
BILLINGS       MOSUNNY   66  58  75 N6        30.21S
LIVINGSTON     SUNNY     67  54  63 NW6       30.23F
MILES CITY     CLOUDY    67  59  75 NE8       30.16R
EKALAKA          N/A     66  60  81 N8        30.13R
FORSYTH          N/A     66  61  82 W7        30.17R
LAUREL           N/A     69  58  68 N7        30.18R
ROUNDUP          N/A     70  55  58 MISG      30.10S
$$

REGIONAL REPORTS...DAKOTAS

CITY           SKY/WX    TMP DP  RH WIND       PRES   REMARKS
WILLISTON      MOSUNNY   71  58  63 E12       30.17S
MINOT          CLOUDY    71  54  54 N5        30.17S
DICKINSON      CLOUDY    60  58  92 E10       30.15R
CROSBY           N/A     68  61  77 NE5       30.20F
WATFORD CITY     N/A    N/A N/A N/A MISG        N/A
BISMARCK       CLOUDY    69  58  67 NE6       30.15F
GRAND FORKS    MOSUNNY   72  56  57 NE12      30.13R
FARGO          PTSUNNY   73  63  70 NW5       30.10R
BUFFALO SD       N/A     67  62  84 S9        30.09R
RAPID CITY     PTSUNNY   66  60  81 N5        30.17R
$$

REGIONAL REPORTS...WYOMING/IDAHO/WASHINGTON

CITY           SKY/WX    TMP DP  RH WIND       PRES   REMARKS
GILLETTE       PTSUNNY   64  60  87 W9        30.21R
SHERIDAN       PTSUNNY   67  57  70 NW7       30.22S
BUFFALO WY     PTSUNNY   65  54  67 N6        30.28R
CODY           SUNNY     70  50  49 CALM      30.26F
YELLOWSTONE LA   N/A     58  48  69 SE5       30.41S
IDAHO FALLS    SUNNY     73  42  32 N7        30.19S
SALMON         SUNNY     70  46  43 CALM      30.17F
BOISE          SUNNY     77  47  34 W5        30.08S
SPOKANE        MOSUNNY   75  52  44 NE7       30.11S
$$

REGIONAL REPORTS...ALBERTA

CITY           SKY/WX    TMP DP  RH WIND       PRES   REMARKS
EDMONTON       MOSUNNY   70  59  68 S8        30.13S
CALGARY        PTSUNNY   68  54  60 E3        30.19F
LETHBRIDGE     PTSUNNY   63  59  88 SW6       30.18S
MEDICINE HAT   PTSUNNY   84  61  45 SW3       30.15S
WATERTON GATE    N/A     66  52  59 N1          N/A
MILK RIVER       N/A     68  55  64 S3          N/A
ONEFOUR          N/A     72  55  56 SE8         N/A
$$

REGIONAL REPORTS...SASKATCHEWAN

CITY           SKY/WX    TMP DP  RH WIND       PRES   REMARKS
SWIFT CURRENT  SUNNY     70  54  56 VRB2      30.17F
REGINA         MOSUNNY   70  61  73 S9        30.18S
SASKATOON      MOSUNNY   73  57  56 SW9       30.15F
CYPRESS HILLS    N/A     66  52  59 W2          N/A
VAL MARIE        N/A     70  57  64 W1          N/A
ROCKGLEN         N/A     66  54  63 NE2         N/A
ASSINIBOIA       N/A    N/A N/A N/A W6          N/A
$$




USA.gov is the U.S. government's official web portal to all federal, state and local government web resources and services.